Weather Roundup
Issued by NWS Chicago, IL

Home | Current Version | Previous Version | Graphics & Text | Print | Product List | Glossary On
Versions: 1 2 3 4 5 6 7 8 9 10 11 12 13 14 15 16 17 18 19 20 21 22 23 24 25 26 27 28 29 30 31 32 33 34 35 36 37 38 39 40 41 42 43 44 45 46 47 48 49 50
000
NZUS59 KLOT 181408
HRRLOT

CHICAGO AREA WEATHER ROUNDUP
NATIONAL WEATHER SERVICE CHICAGO/ROMEOVILLE IL
900 AM CDT SAT APR 18 2015

NOTE: "FAIR" INDICATES FEW OR NO CLOUDS BELOW 12,000 FEET WITH NO
SIGNIFICANT WEATHER AND/OR OBSTRUCTIONS TO VISIBILITY.

* THESE STATIONS ARE NOT UNDER NWS QUALITY CONTROL. THEY ALSO MAY NOT
  REPORT WEATHER SUCH AS PRECIPITATION OR FOG.

ILZ005-006-012>014-019>023-181500-
NORTHEAST ILLINOIS

CITY           SKY/WX    TMP DP  RH WIND       PRES   REMARKS
OHARE          MOSUNNY   57  40  52 NE21G28   30.07R
MIDWAY         MOSUNNY   64  44  48 NE21      30.05R
AURORA         MOSUNNY   68  49  50 NE15      30.04S
LANSING*       MOSUNNY   66  47  51 CALM      30.05R
JOLIET*        MOSUNNY   67  54  64 CALM      30.04S
WAUKEGAN       SUNNY     51  38  60 N20G32    30.08R
DUPAGE AIRPORT MOSUNNY   65  45  48 NE15G24   30.04S
WHEELING       SUNNY     54  39  57 NE14G23   30.10R
KANKAKEE*      PTSUNNY   66  55  68 CALM      30.05R
MORRIS*        MOSUNNY   66  53  62 CALM      30.02R
LEWIS AIRPORT* MOSUNNY   67  49  52 E10       30.05R
NORTHERLY IS     N/A     54  43  66 MISG        N/A
$$

WIZ051-052-058>065-066-070>072-181500-
SOUTHEAST WISCONSIN

CITY           SKY/WX    TMP DP  RH WIND       PRES   REMARKS
MILWAUKEE      MOSUNNY   45  35  68 N25G32    30.13S
KENOSHA*       SUNNY     53  36  52 NE20G26   30.10S
RACINE*        SUNNY     46  35  65 N24G32    30.12S
BURLINGTON     SUNNY     53  33  46 NE20G28   30.10R
WAUKESHA       MOSUNNY   50  34  53 NE17G23   30.12F
WEST BEND      SUNNY     50  34  53 NE23G29   30.14S
$$

INZ001>003-010>013-019-020-181500-
NORTHWEST INDIANA

CITY           SKY/WX    TMP DP  RH WIND       PRES   REMARKS
GARY*          PTSUNNY   66  43  42 N7        30.06R
MICHIGAN CITY* NOT AVBL
RENSSELAER*    NOT AVBL
VALPARAISO     MOSUNNY   69  49  48 N6        30.04F
$$

LMZ740>746-181500-
SOUTHERN LAKE MICHIGAN

STATION/POSITION TIME  SKY/WX   TEMP WIND        PRES    VSBY
                                AIR  DIR/SP/G
                 (UTC)          (F)  (DEG/KT/KT) (MB)    (MI)
HARRISON CRIB    1300            61  350/ 16/ 17   N/A
BURNHAM HARBOR   1400            53   10/ 14/ 21   N/A
CALUMET HARBOR   1300            64  330/  9/ 13   N/A
BURNS HARBOR     1300            60  240/  3/  4 1017.9R
MICHIGAN CITY    1300            59  250/  3/  3   N/A
$$

ABBREVIATIONS USED IN REMARKS
   TC - TEMPERATURE IN CELSIUS
  WCI - WIND CHILL INDEX
   HX - HEAT INDEX
  VSB - VISIBILITY
$$


USA.gov is the U.S. government's official web portal to all federal, state and local government web resources and services.